Location: Bonny Doon Airfield
(37.0704°N, 122.1252°W)
Time: 20:43:13
(UTC-07:00)

Envisat - Pass Details

Date: 14 October 2017
Orbit: 764 x 766 km, 98.2° (Epoch: 18 October)

Event Time Altitude Azimuth Distance (km) Brightness Sun altitude
Exits shadow 20:40:26 32° 14° (NNE) 1,286 4.1 -26.2°
Drops below altitude 10° 20:43:19 10° 358° (N) 2,306 5.6 -26.8°
Sets 20:45:40 0° 353° (N) 3,236 6.4 -27.3°
